Total_Precipitation_Accumulation
1.82 1.92 1.97 1.94 2.02 2.11 2.16 2.07 2.18 2.30 2.46 2.43 2.43 2.44 2.32 2.25 2.33 2.47 2.32 2.52 2.52 2.55 2.52 2.55 2.57 2.75 2.86 2.77 2.82 2.89 3.17 3.47 3.38 3.10 2.79 2.60 2.54 2.51 2.37 2.31 2.23 2.12 1.93
1.75 1.78 1.92 2.00 1.96 1.91 1.87 1.91 1.97 2.02 2.10 2.12 2.10 2.11 2.15 2.31 2.44 2.36 2.32 2.34 2.38 2.34 2.41 2.56 2.44 2.61 2.74 2.65 2.76 2.78 2.94 3.31 3.46 3.54 3.43 3.10 2.84 2.69 2.63 2.42 2.00 1.84 1.91
1.84 1.85 1.97 1.91 1.82 1.84 1.98 2.05 2.02 2.02 2.06 2.03 2.03 2.03 2.06 2.28 2.44 2.37 2.38 2.44 2.43 2.29 2.39 2.43 2.30 2.45 2.50 2.54 2.59 2.64 2.82 3.04 3.33 3.28 3.29 3.21 3.04 2.78 2.89 2.58 2.26 2.20 1.80
1.84 1.94 2.07 1.98 1.96 2.04 2.16 2.24 2.19 2.09 2.10 2.19 2.21 2.15 2.17 2.10 2.12 2.27 2.42 2.41 2.38 2.27 2.27 2.19 2.07 2.09 2.18 2.37 2.37 2.49 2.71 2.90 3.09 3.03 3.08 3.18 3.25 3.26 3.28 3.02 2.82 2.58 2.19
1.84 1.97 2.07 2.13 2.13 2.16 2.18 2.26 2.25 2.14 2.12 2.35 2.36 2.32 2.28 2.12 1.98 2.11 2.22 2.14 2.17 2.13 2.08 1.92 1.73 1.80 1.91 1.98 1.89 2.25 2.57 2.68 2.76 2.84 2.92 3.11 3.26 3.50 3.30 3.15 3.04 2.98 2.67
1.68 1.85 1.92 2.05 2.18 2.18 2.15 2.20 2.21 2.25 2.29 2.33 2.27 2.26 2.15 1.82 1.89 1.85 1.80 1.84 1.90 1.91 1.94 1.92 1.78 1.69 1.65 1.68 1.63 1.80 2.12 2.27 2.46 2.75 2.87 3.07 3.16 3.18 3.35 3.33 3.27 3.13 2.84
1.55 1.72 1.85 1.98 2.07 2.11 2.07 2.17 2.29 2.27 2.20 2.09 2.03 2.03 1.97 1.89 1.74 1.51 1.46 1.58 1.76 1.83 1.87 1.90 1.66 1.53 1.61 1.49 1.57 1.63 1.66 1.76 1.93 2.31 2.57 2.66 2.72 2.78 3.08 3.18 3.18 3.05 2.95
1.63 1.76 1.85 1.99 2.04 2.07 2.06 2.03 2.05 2.05 2.03 2.03 1.91 1.91 1.98 1.87 1.77 1.51 1.41 1.37 1.57 1.61 1.60 1.64 1.68 1.64 1.56 1.62 1.60 1.56 1.47 1.51 1.62 1.65 1.81 2.04 2.32 2.57 2.77 2.97 3.24 3.19 3.11
1.66 1.81 1.93 2.03 2.05 2.04 2.06 2.01 2.04 2.03 1.97 1.97 1.95 1.97 1.96 1.89 1.83 1.61 1.53 1.48 1.60 1.60 1.62 1.63 1.71 1.75 1.78 1.66 1.60 1.60 1.59 1.60 1.57 1.57 1.51 1.61 1.80 1.94 2.13 2.40 2.77 3.11 3.29
1.72 1.82 1.93 2.02 2.14 2.09 2.18 2.23 2.19 2.10 2.01 1.99 2.02 1.98 1.87 1.83 1.73 1.55 1.53 1.51 1.70 1.82 1.91 1.89 1.79 1.67 1.69 1.59 1.55 1.62 1.58 1.59 1.51 1.46 1.40 1.38 1.39 1.54 1.74 1.96 2.28 2.66 2.94
1.79 1.91 2.00 2.08 2.15 2.13 2.19 2.23 2.23 2.16 2.13 2.00 1.89 1.89 1.88 1.78 1.60 1.34 1.30 1.32 1.57 1.81 1.86 1.80 1.69 1.55 1.42 1.37 1.33 1.42 1.52 1.47 1.46 1.49 1.52 1.51 1.53 1.57 1.64 1.75 2.07 2.34 2.49
1.90 1.90 1.98 2.12 1.96 1.95 2.18 2.25 2.27 2.29 2.25 2.12 1.99 1.91 1.92 1.84 1.56 1.38 1.33 1.33 1.48 1.72 1.92 1.88 1.73 1.56 1.38 1.29 1.13 1.19 1.26 1.20 1.26 1.44 1.51 1.53 1.55 1.57 1.66 1.78 1.98 2.20 2.39
1.91 1.95 1.97 2.02 2.12 2.19 2.24 2.31 2.29 2.24 2.21 2.17 2.11 2.00 1.97 1.99 1.92 1.65 1.51 1.47 1.54 1.60 1.76 1.94 1.81 1.52 1.29 1.19 1.14 1.07 0.97 0.96 1.12 1.25 1.32 1.42 1.48 1.56 1.69 1.87 2.09 2.27 2.34
2.03 2.13 2.11 2.08 2.12 2.29 2.45 2.45 2.37 2.22 2.25 2.28 2.18 2.15 2.15 2.17 2.06 1.84 1.68 1.57 1.59 1.58 1.59 1.61 1.57 1.43 1.24 1.23 1.24 1.11 1.00 1.07 1.14 1.16 1.24 1.35 1.43 1.51 1.66 1.77 1.97 2.19 2.33
2.24 2.23 2.25 2.27 2.31 2.39 2.39 2.38 2.37 2.32 2.27 2.30 2.26 2.23 2.20 2.13 2.01 1.89 1.76 1.70 1.69 1.63 1.54 1.55 1.50 1.50 1.36 1.30 1.36 1.36 1.33 1.37 1.33 1.26 1.29 1.32 1.38 1.44 1.51 1.64 1.81 1.93 2.05
2.53 2.42 2.42 2.42 2.44 2.42 2.45 2.30 2.17 2.09 2.04 1.94 1.96 1.95 1.85 1.81 1.75 1.65 1.63 1.62 1.59 1.59 1.47 1.55 1.65 1.63 1.57 1.55 1.56 1.54 1.53 1.49 1.47 1.50 1.48 1.43 1.43 1.46 1.44 1.50 1.64 1.73 1.77
2.69 2.64 2.53 2.45 2.40 2.39 2.47 2.48 2.40 2.25 2.18 2.02 1.87 1.78 1.73 1.68 1.58 1.50 1.51 1.57 1.59 1.58 1.50 1.61 1.76 1.77 1.75 1.74 1.66 1.61 1.65 1.60 1.59 1.61 1.59 1.58 1.60 1.60 1.57 1.58 1.67 1.78 1.78
2.59 2.58 2.52 2.48 2.39 2.37 2.46 2.53 2.47 2.42 2.38 2.22 2.01 1.89 1.70 1.53 1.42 1.41 1.49 1.50 1.47 1.45 1.51 1.71 1.89 1.89 1.88 1.86 1.77 1.69 1.70 1.68 1.65 1.63 1.63 1.60 1.62 1.68 1.70 1.67 1.68 1.75 1.76
2.54 2.47 2.44 2.41 2.45 2.52 2.56 2.61 2.57 2.53 2.49 2.38 2.13 1.96 1.83 1.58 1.45 1.43 1.44 1.39 1.49 1.60 1.67 1.78 1.83 1.85 1.85 1.78 1.69 1.65 1.68 1.65 1.61 1.64 1.64 1.63 1.64 1.72 1.72 1.69 1.67 1.75 1.68
2.60 2.59 2.48 2.34 2.32 2.44 2.55 2.53 2.53 2.53 2.45 2.36 2.25 2.04 1.82 1.65 1.55 1.54 1.46 1.47 1.56 1.62 1.63 1.64 1.64 1.63 1.65 1.67 1.68 1.70 1.75 1.71 1.69 1.67 1.61 1.60 1.61 1.65 1.68 1.69 1.67 1.66 1.61
2.32 2.27 2.23 2.06 2.02 2.07 2.26 2.36 2.41 2.48 2.36 2.22 2.13 2.07 1.85 1.57 1.57 1.57 1.55 1.52 1.54 1.57 1.57 1.57 1.57 1.54 1.52 1.59 1.65 1.66 1.69 1.71 1.66 1.61 1.61 1.62 1.59 1.63 1.62 1.60 1.57 1.51 1.50
2.15 2.11 1.99 1.90 1.92 2.00 2.09 2.16 2.27 2.36 2.32 2.24 2.11 2.02 1.92 1.64 1.57 1.54 1.48 1.45 1.43 1.44 1.45 1.54 1.55 1.52 1.50 1.57 1.62 1.63 1.62 1.59 1.55 1.53 1.51 1.49 1.51 1.54 1.54 1.54 1.55 1.53 1.52
2.29 2.20 2.16 2.11 2.02 2.08 2.06 2.10 2.21 2.19 2.11 2.09 2.01 1.90 1.82 1.79 1.70 1.60 1.50 1.43 1.39 1.38 1.37 1.41 1.44 1.43 1.41 1.42 1.46 1.46 1.41 1.38 1.36 1.33 1.38 1.41 1.44 1.49 1.51 1.53 1.58 1.64 1.62
2.29 2.30 2.20 2.07 1.99 1.94 1.95 2.05 2.08 1.98 1.85 1.83 1.79 1.69 1.68 1.71 1.67 1.59 1.46 1.40 1.39 1.35 1.30 1.25 1.20 1.17 1.17 1.19 1.23 1.24 1.20 1.19 1.19 1.24 1.28 1.35 1.37 1.39 1.42 1.49 1.58 1.64 1.63
2.09 2.18 2.20 2.10 1.94 1.81 1.75 1.78 1.76 1.71 1.65 1.61 1.60 1.59 1.58 1.54 1.48 1.40 1.34 1.31 1.28 1.22 1.13 1.08 1.06 1.05 1.03 1.02 1.02 1.05 1.13 1.17 1.17 1.16 1.17 1.24 1.28 1.33 1.33 1.38 1.46 1.52 1.51
1.93 1.96 1.92 1.82 1.69 1.57 1.54 1.56 1.54 1.47 1.43 1.38 1.35 1.33 1.28 1.25 1.22 1.16 1.10 1.09 1.11 1.11 1.08 1.04 1.04 1.04 1.03 1.00 0.98 1.01 1.01 0.96 1.01 1.05 0.98 0.97 1.08 1.17 1.16 1.12 1.12 1.23 1.28